Lid_Strength_Index
-1 -1 -1 2 6 5 9 8 6 7 7 4 4 5 6 5 7 9 0 -0 -1 -1 -2 -1 -1 -1 -1 -1 -1 -1 -1 -1 -1 -1 -1 -2 -1 -2 -2 -2 -2 -2 -2 -2 -2 -2 -2 -2 -2
-1 -0 1 3 7 10 10 7 8 6 5 4 4 5 6 7 3 3 2 -0 -1 -1 -1 -1 -1 -1 -1 -1 -1 -1 -1 -1 -1 -1 -1 -2 -2 -2 -2 -2 -2 -2 -2 -2 -2 -2 -2 -2 -2
-0 0 4 5 6 10 10 7 6 5 4 5 5 4 4 6 3 2 -0 -1 -1 -1 -1 -2 -1 -1 -1 -1 -1 -1 -1 -1 -1 -1 -1 -1 -1 -2 -2 -2 -2 -2 -2 -2 -2 -2 -2 -2 -2
1 2 3 7 9 8 7 6 5 5 5 4 4 6 3 2 2 1 -0 -1 -0 -1 -1 -1 -1 -1 -1 -1 -1 -2 -2 -1 -2 -1 -1 -1 -1 -1 -2 -2 -2 -2 -2 -2 -2 -2 -2 -2 -2
1 3 6 8 9 7 6 5 5 6 6 5 4 6 5 2 1 -0 -0 -0 -0 -1 -1 -1 -1 -1 -1 -2 -2 -2 -2 -2 -2 -2 -1 -1 -1 -2 -2 -1 -2 -2 -2 -2 -2 -2 -2 -2 -2
4 4 7 9 9 7 6 5 5 5 5 5 5 5 5 1 1 0 -0 -0 -1 -1 -1 -2 -1 -1 -1 -2 -2 -2 -2 -2 -2 -2 -2 -2 -2 -2 -2 -2 -2 -2 -2 -2 -2 -2 -2 -2 -2
5 6 8 8 8 8 6 4 5 5 6 6 4 6 4 2 1 0 -0 -0 -1 -1 -1 -1 -2 -1 -2 -2 -2 -2 -2 -2 -2 -2 -2 -1 -1 -1 -2 -2 -2 -2 -2 -2 -2 -2 -2 -2 -2
3 4 8 7 9 8 5 5 4 5 6 3 3 6 5 2 0 0 -0 -0 -1 -1 -1 -2 -2 -2 -2 -2 -2 -2 -2 -2 -2 -1 -0 -0 -1 -1 -1 -2 -2 -2 -2 -2 -2 -2 -2 -2 -2
3 5 8 8 8 7 5 6 4 3 5 4 3 4 2 1 0 1 1 1 -1 -0 -1 -2 -2 -2 -2 -2 -2 -2 -2 -1 -1 -0 0 -1 -1 -1 -1 -2 -1 -2 -2 -2 -2 -2 -2 -2 -2
5 6 7 5 5 6 5 5 5 5 5 5 4 3 2 1 1 2 2 1 1 -0 -0 -1 -2 -1 -1 -2 -2 -2 -2 -2 -2 -1 -1 0 -1 -1 -1 -1 0 0 -1 -0 -1 -1 -1 -2 -1
5 6 5 5 5 4 5 5 4 6 6 5 5 4 2 2 2 2 2 1 1 0 -1 -1 -1 -2 -2 -2 -2 -2 -3 -2 -2 -2 -2 -1 -1 -0 -1 -1 -0 -0 0 -0 -0 -0 -0 -1 -2
6 5 5 5 4 5 6 5 6 5 5 3 3 3 2 2 2 2 2 1 1 0 -0 -0 -1 -1 -2 -2 -2 -2 -2 -2 -2 -2 -1 -1 0 0 0 -1 -1 -0 0 0 1 1 -0 -1 -2
5 5 5 4 4 5 4 5 5 5 3 3 3 3 3 2 2 1 1 1 0 1 0 -0 -1 -1 -2 -1 -3 -3 -3 -2 -2 -2 -1 -0 1 0 0 -1 -1 -1 0 1 1 1 0 -0 -1
5 5 5 5 5 5 6 6 5 5 3 4 3 3 2 2 2 1 1 1 1 1 1 0 0 -1 -1 -2 -2 -2 -3 -2 -2 -1 -1 -1 -0 -1 -0 -0 -0 -0 -0 0 0 0 1 0 -1
4 6 5 5 5 6 5 7 7 4 4 4 4 3 3 2 2 2 1 1 1 1 1 1 2 1 -1 -1 -2 -2 -1 -1 -2 -1 -2 -1 -1 -2 -2 -1 -1 -0 -0 1 1 0 0 0 -0
6 6 7 6 6 5 6 9 6 4 4 5 4 4 3 2 2 1 1 1 1 2 1 1 2 2 0 -1 -1 -1 -2 -2 -2 -2 -2 -1 -1 -2 -2 -1 -1 -1 -0 0 1 1 1 0 -1
6 8 8 7 5 6 7 8 6 4 5 5 4 4 3 3 2 1 1 1 1 2 1 1 1 2 2 0 -1 -1 -2 -1 -2 -2 -2 -2 -1 -1 -2 -1 -1 -1 0 1 1 1 0 1 -0
8 8 7 8 6 6 7 7 5 5 5 5 4 4 4 3 2 1 1 1 1 2 1 1 1 1 1 0 0 -0 -1 -1 -1 -2 -2 -2 -2 -1 -2 -1 -2 -1 0 1 0 0 0 0 -0
6 7 8 6 6 7 7 7 6 5 5 5 5 4 4 3 2 1 1 1 1 1 1 2 2 1 2 2 2 1 0 -1 -1 -1 -2 -2 -2 -2 -2 -1 -1 -1 -0 -0 -0 0 0 0 -0
7 7 7 7 6 7 7 7 6 5 5 5 5 5 4 3 3 2 1 1 2 2 2 3 3 2 2 2 1 1 -1 -1 -1 -1 -2 -2 -2 -2 -2 -2 -1 -1 -0 -1 -1 -0 1 1 -0
7 7 8 8 7 7 7 8 7 6 5 5 4 4 4 4 3 3 2 2 2 2 2 2 2 2 1 0 -1 -1 -1 -1 -0 -1 -1 -1 -2 -2 -2 -2 -1 -1 -1 0 -0 -0 -0 1 -0
8 6 7 7 8 10 7 11 8 6 6 5 4 4 4 3 3 2 2 2 2 1 1 1 0 -0 0 -1 -1 -0 1 1 0 -0 -1 -1 -2 -2 -2 -2 -2 -2 -1 -1 -0 0 -0 0 2
7 6 7 7 8 8 8 10 8 6 7 6 5 4 4 3 3 3 2 2 1 1 1 0 0 -0 -1 -1 -1 0 0 -1 -1 -1 -0 -1 -1 -2 -1 -2 -2 -1 -1 -1 -1 -1 -1 -0 0
5 6 7 7 7 11 9 10 9 8 7 6 5 4 4 3 3 2 2 2 1 1 1 0 0 0 -0 -1 -1 -0 0 0 0 -0 0 -0 -1 -2 -2 -1 -2 -2 -1 -1 -1 -1 -1 -1 -0
6 7 11 12 11 12 8 10 8 6 6 6 5 5 4 3 3 3 3 2 2 2 1 1 1 1 0 -0 -0 -0 -0 -0 -0 0 -0 0 -1 -1 -2 -1 -1 -1 -2 -1 -1 -1 -1 -0 0
7 7 10 14 13 11 8 10 8 5 5 5 4 4 4 3 3 3 3 2 2 2 1 1 1 1 0 -0 -0 -1 -1 -0 -0 -0 -0 -0 -0 -1 -1 -1 -1 -1 -1 -1 -1 -1 -0 -1 -0
8 8 7 9 9 10 9 7 6 5 5 5 5 4 4 4 3 3 2 2 2 2 1 1 1 1 0 0 -0 -0 -1 -1 -0 -1 -1 -1 -1 -1 -1 -1 -1 -1 -1 -1 -1 -0 -0 -0 -0
6 6 9 8 13 13 10 9 9 7 6 6 5 5 4 3 3 3 2 2 2 1 1 1 1 1 0 -0 -0 -0 -0 -1 -1 -1 -0 -1 -1 -1 -1 -1 -1 -1 -1 -1 -1 -1 -1 -0 -0
7 8 8 8 9 12 12 10 6 6 6 6 5 4 4 3 3 3 2 2 2 1 1 1 1 1 1 0 -0 -0 -0 -0 -1 -0 -1 -1 -1 -1 -1 -1 -1 -1 -1 -1 -1 -0 -0 0 -0
6 7 8 10 10 9 11 10 5 6 5 5 5 4 4 3 3 3 3 2 2 2 1 1 1 1 -0 -1 0 -0 -0 -0 -0 -0 -1 -1 -1 -1 -1 -1 -1 -1 -1 -1 -0 -0 -0 0 0